Flag for United Kingdom Weather past 2 weeks in Durham, England, United Kingdom

Now
55 °F

Drizzle. Fog.


Feels Like: 55 °F
Forecast: 44 / 57 °F
Wind: 3 mph from Northeast

Location: Newcastle

Current Time: Sep 20, 2014 at 1:59:09 AM

Latest Report: Sep 20, 2014 at 1:20 AM


Visibility: 1 mi

Pressure: 29.98 "Hg

Humidity: 100%

Dew point: 55 °F

Location of DurhamLocation

Historic Weather in Durham — Graph

°F

Durham temperature yesterday

Maximum temperature yesterday: 59 °F (at 12:20 PM)
Minimum temperature yesterday: 57 °F (at 12:50 AM)
Average temperature yesterday: 58 °F

Past Weeks' High & Low Weather Summary

 TemperatureHumidityPressure
High70 °F (Sep 5, 1:20 PM)100% (Sep 5, 12:20 AM)30.42 "Hg (Sep 5, 12:20 AM)
Low43 °F (Sep 12, 5:50 AM)53% (Sep 12, 3:20 PM)29.92 "Hg (Sep 18, 2:50 AM)
Average56 °F89%30.11 "Hg
* Reported Sep 5 12:20 AM — Sep 20 12:50 AM, Durham, Weather by CustomWeather, © 2014

Note: Actual official high and low records may vary slightly from our data, if they occured in-between our weather recording intervals... More about our weather records

Advertising

Durham weather history for previous 24 hours

 ConditionsComfort  
Time TempWeatherWind HumidityBarometerVisibility
12:50 AM
Sep 20
55 °FDrizzle. Fog.3 mph100%29.98 "Hg1 mi
12:20 AM55 °FDrizzle. Fog.2 mph100%29.98 "Hg1 mi
11:50 PM
Sep 19
57 °FDrizzle. Fog.No wind94%29.98 "Hg1 mi
11:20 PM57 °FDrizzle. Fog.No wind94%29.98 "Hg1 mi
10:50 PM57 °FDrizzle. Fog.No wind94%29.98 "Hg1 mi
10:20 PM57 °FFog.No wind94%29.98 "Hg1 mi
9:50 PM57 °FFog.2 mph94%29.98 "Hg1 mi
9:20 PM57 °FFog.No wind94%29.98 "Hg1 mi
8:50 PM57 °FFog.No wind94%29.98 "Hg1 mi
8:20 PM57 °FFog.No wind94%29.95 "Hg1 mi
7:50 PM57 °FFog.No wind94%29.95 "Hg2 mi
7:20 PM57 °FFog.No wind94%29.95 "Hg2 mi
6:50 PM57 °FFog.No wind94%29.95 "Hg3 mi
6:20 PM57 °FFog.3 mph94%29.95 "Hg3 mi
5:50 PM57 °FFog.3 mph94%29.95 "Hg3 mi
5:20 PM59 °FFog.2 mph88%29.95 "Hg3 mi
4:50 PM59 °FFog.3 mph88%29.95 "Hg3 mi
4:20 PM59 °FFog.2 mph88%29.95 "Hg3 mi
3:50 PM59 °FFog.2 mph88%29.95 "Hg3 mi
3:20 PM59 °FFog.No wind88%29.95 "Hg3 mi
2:50 PM59 °FFog.No wind88%29.95 "Hg3 mi
2:20 PM59 °FFog.2 mph88%29.92 "Hg3 mi
1:50 PM59 °FFog.2 mph88%29.92 "Hg3 mi
1:20 PM59 °FFog.2 mph88%29.95 "Hg3 mi
12:50 PM59 °FFog.3 mph94%29.95 "Hg3 mi
12:20 PM59 °FFog.5 mph94%29.95 "Hg2 mi
11:50 AM57 °FFog.5 mph100%29.95 "Hg2 mi
11:20 AM57 °FFog.5 mph100%29.95 "Hg2 mi
10:50 AM57 °FFog.5 mph100%29.95 "Hg2 mi
10:20 AM57 °FFog.5 mph100%29.95 "Hg1 mi
9:50 AM57 °FFog.3 mph100%29.95 "Hg1 mi
9:20 AM57 °FFog.5 mph100%29.95 "Hg2 mi
8:50 AM57 °FFog.5 mph100%29.95 "Hg2 mi
8:20 AM57 °FFog.3 mph100%29.95 "Hg2 mi
7:50 AM57 °FFog.3 mph100%29.95 "Hg2 mi
7:20 AM57 °FFog.6 mph100%29.92 "Hg2 mi
6:50 AM57 °FFog.6 mph100%29.92 "Hg2 mi
6:20 AM57 °FFog.5 mph100%29.92 "Hg1 mi
5:50 AM57 °FFog.6 mph100%29.92 "Hg1 mi
5:20 AM57 °FFog.5 mph100%29.92 "Hg1 mi
4:50 AM57 °FFog.3 mph100%29.92 "Hg1 mi
4:20 AM57 °FFog.3 mph100%29.92 "Hg1 mi
3:50 AM57 °FFog.3 mph100%29.92 "Hg1 mi
3:20 AM57 °FFog.5 mph100%29.92 "Hg1 mi
2:50 AM57 °FFog.5 mph100%29.92 "Hg1 mi
2:20 AM57 °FFog.3 mph100%29.95 "Hg1 mi
1:20 AM57 °FFog.6 mph100%29.95 "Hg1 mi
Weather by CustomWeather, © 2014

See weather overviewHow to use our weather pages